Year,Month,Day,Hour,Minute,Value (Times are PST for temperature in C)
2012,04,14,00,00,7.90
2012,04,14,00,01,7.90
2012,04,14,00,02,8.00
2012,04,14,00,03,8.00
2012,04,14,00,04,8.00
2012,04,14,00,05,8.10
2012,04,14,00,06,8.10
2012,04,14,00,07,8.10
2012,04,14,00,08,8.10
2012,04,14,00,09,8.10
2012,04,14,00,10,8.10
2012,04,14,00,11,8.10
2012,04,14,00,12,8.00
2012,04,14,00,13,8.00
2012,04,14,00,14,8.00
2012,04,14,00,15,8.00
2012,04,14,00,16,7.90
2012,04,14,00,17,7.90
2012,04,14,00,18,7.90
2012,04,14,00,19,7.90
2012,04,14,00,20,7.80
2012,04,14,00,21,7.90
2012,04,14,00,22,7.90
2012,04,14,00,23,7.90
2012,04,14,00,24,7.90
2012,04,14,00,25,7.90
2012,04,14,00,26,7.90
2012,04,14,00,27,7.90
2012,04,14,00,28,7.90
2012,04,14,00,29,7.80
2012,04,14,00,30,7.80
2012,04,14,00,31,7.80
2012,04,14,00,32,7.80
2012,04,14,00,33,7.80
2012,04,14,00,34,7.80
2012,04,14,00,35,7.80
2012,04,14,00,36,7.80
2012,04,14,00,37,7.80
2012,04,14,00,38,7.80
2012,04,14,00,39,7.80
2012,04,14,00,40,7.80
2012,04,14,00,41,7.80
2012,04,14,00,42,7.80
2012,04,14,00,43,7.80
2012,04,14,00,44,7.70
2012,04,14,00,45,7.70
2012,04,14,00,46,7.60
2012,04,14,00,47,7.60
2012,04,14,00,48,7.50
2012,04,14,00,49,7.50
2012,04,14,00,50,7.40
2012,04,14,00,51,7.40
2012,04,14,00,52,7.30
2012,04,14,00,53,7.30
2012,04,14,00,54,7.30
2012,04,14,00,55,7.30
2012,04,14,00,56,7.20
2012,04,14,00,57,7.20
2012,04,14,00,58,7.10
2012,04,14,00,59,7.10
2012,04,14,01,00,7.00
2012,04,14,01,01,7.00
2012,04,14,01,02,7.00
2012,04,14,01,03,7.00
2012,04,14,01,04,6.90
2012,04,14,01,05,6.90
2012,04,14,01,06,6.90
2012,04,14,01,07,6.90
2012,04,14,01,08,6.80
2012,04,14,01,09,6.80
2012,04,14,01,10,6.80
2012,04,14,01,11,6.80
2012,04,14,01,12,6.80
2012,04,14,01,13,6.70
2012,04,14,01,14,6.70
2012,04,14,01,15,6.70
2012,04,14,01,16,6.60
2012,04,14,01,17,6.60
2012,04,14,01,18,6.60
2012,04,14,01,19,6.60
2012,04,14,01,20,6.60
2012,04,14,01,21,6.50
2012,04,14,01,22,6.40
2012,04,14,01,23,6.40
2012,04,14,01,24,6.40
2012,04,14,01,25,6.40
2012,04,14,01,26,6.30
2012,04,14,01,27,6.30
2012,04,14,01,28,6.30
2012,04,14,01,29,6.20
2012,04,14,01,30,6.20
2012,04,14,01,31,6.20
2012,04,14,01,32,6.10
2012,04,14,01,33,6.10
2012,04,14,01,34,6.00
2012,04,14,01,35,6.00
2012,04,14,01,36,6.00
2012,04,14,01,37,5.90
2012,04,14,01,38,5.90
2012,04,14,01,39,5.80
2012,04,14,01,40,5.80
2012,04,14,01,41,5.80
2012,04,14,01,42,5.70
2012,04,14,01,43,5.70
2012,04,14,01,44,5.70
2012,04,14,01,45,5.70
2012,04,14,01,46,5.70
2012,04,14,01,47,5.70
2012,04,14,01,48,5.70
2012,04,14,01,49,5.70
2012,04,14,01,50,5.70
2012,04,14,01,51,5.60
2012,04,14,01,52,5.60
2012,04,14,01,53,5.60
2012,04,14,01,54,5.60
2012,04,14,01,55,5.60
2012,04,14,01,56,5.60
2012,04,14,01,57,5.50
2012,04,14,01,58,5.50
2012,04,14,01,59,5.50
2012,04,14,02,00,5.40
2012,04,14,02,01,5.40
2012,04,14,02,02,5.40
2012,04,14,02,03,5.40
2012,04,14,02,04,5.30
2012,04,14,02,05,5.30
2012,04,14,02,06,5.30
2012,04,14,02,07,5.30
2012,04,14,02,08,5.30
2012,04,14,02,09,5.30
2012,04,14,02,10,5.20
2012,04,14,02,11,5.20
2012,04,14,02,12,5.20
2012,04,14,02,13,5.20
2012,04,14,02,14,5.20
2012,04,14,02,15,5.10
2012,04,14,02,16,5.10
2012,04,14,02,17,5.10
2012,04,14,02,18,5.10
2012,04,14,02,19,5.10
2012,04,14,02,20,5.10
2012,04,14,02,21,5.10
2012,04,14,02,22,5.10
2012,04,14,02,23,5.10
2012,04,14,02,24,5.10
2012,04,14,02,25,5.10
2012,04,14,02,26,5.10
2012,04,14,02,27,5.10
2012,04,14,02,28,4.90
2012,04,14,02,29,4.90
2012,04,14,02,30,4.90
2012,04,14,02,31,4.90
2012,04,14,02,32,4.90
2012,04,14,02,33,4.90
2012,04,14,02,34,4.90
2012,04,14,02,35,4.90
2012,04,14,02,36,4.90
2012,04,14,02,37,4.80
2012,04,14,02,38,4.80
2012,04,14,02,39,4.80
2012,04,14,02,40,4.70
2012,04,14,02,41,4.70
2012,04,14,02,42,4.70
2012,04,14,02,43,4.70
2012,04,14,02,44,4.60
2012,04,14,02,45,4.60
2012,04,14,02,46,4.60
2012,04,14,02,47,4.60
2012,04,14,02,48,4.60
2012,04,14,02,49,4.60
2012,04,14,02,50,4.60
2012,04,14,02,51,4.60
2012,04,14,02,52,4.50
2012,04,14,02,53,4.50
2012,04,14,02,54,4.50
2012,04,14,02,55,4.40
2012,04,14,02,56,4.40
2012,04,14,02,57,4.40
2012,04,14,02,58,4.30
2012,04,14,02,59,4.30
2012,04,14,03,00,4.30
2012,04,14,03,01,4.30
2012,04,14,03,02,4.30
2012,04,14,03,03,4.30
2012,04,14,03,04,4.30
2012,04,14,03,05,4.30
2012,04,14,03,06,4.20
2012,04,14,03,07,4.20
2012,04,14,03,08,4.20
2012,04,14,03,09,4.20
2012,04,14,03,10,4.20
2012,04,14,03,11,4.20
2012,04,14,03,12,4.20
2012,04,14,03,13,4.10
2012,04,14,03,14,4.10
2012,04,14,03,15,4.10
2012,04,14,03,16,4.10
2012,04,14,03,17,4.10
2012,04,14,03,18,4.10
2012,04,14,03,19,4.10
2012,04,14,03,20,4.00
2012,04,14,03,21,4.10
2012,04,14,03,22,4.10
2012,04,14,03,23,4.10
2012,04,14,03,24,4.10
2012,04,14,03,25,4.10
2012,04,14,03,26,4.10
2012,04,14,03,27,4.10
2012,04,14,03,28,4.10
2012,04,14,03,29,4.10
2012,04,14,03,30,4.10
2012,04,14,03,31,4.10
2012,04,14,03,32,4.10
2012,04,14,03,33,4.10
2012,04,14,03,34,4.10
2012,04,14,03,35,4.00
2012,04,14,03,36,4.00
2012,04,14,03,37,4.00
2012,04,14,03,38,4.00
2012,04,14,03,39,4.00
2012,04,14,03,40,4.00
2012,04,14,03,41,3.90
2012,04,14,03,42,3.90
2012,04,14,03,43,3.90
2012,04,14,03,44,3.90
2012,04,14,03,45,3.90
2012,04,14,03,46,3.80
2012,04,14,03,47,3.80
2012,04,14,03,48,3.80
2012,04,14,03,49,3.80
2012,04,14,03,50,3.80
2012,04,14,03,51,3.80
2012,04,14,03,52,3.80
2012,04,14,03,53,3.80
2012,04,14,03,54,3.80
2012,04,14,03,55,3.80
2012,04,14,03,56,3.80
2012,04,14,03,57,3.80
2012,04,14,03,58,3.70
2012,04,14,03,59,3.70
2012,04,14,04,00,3.70
2012,04,14,04,01,3.70
2012,04,14,04,02,3.60
2012,04,14,04,03,3.60
2012,04,14,04,04,3.60
2012,04,14,04,05,3.60
2012,04,14,04,06,3.60
2012,04,14,04,07,3.50
2012,04,14,04,08,3.50
2012,04,14,04,09,3.50
2012,04,14,04,10,3.50
2012,04,14,04,11,3.50
2012,04,14,04,12,3.50
2012,04,14,04,13,3.50
2012,04,14,04,14,3.60
2012,04,14,04,15,3.60
2012,04,14,04,16,3.60
2012,04,14,04,17,3.60
2012,04,14,04,18,3.60
2012,04,14,04,19,3.60
2012,04,14,04,20,3.70
2012,04,14,04,21,3.70
2012,04,14,04,22,3.70
2012,04,14,04,23,3.70
2012,04,14,04,24,3.70
2012,04,14,04,25,3.70
2012,04,14,04,26,3.70
2012,04,14,04,27,3.70
2012,04,14,04,28,3.70
2012,04,14,04,29,3.60
2012,04,14,04,30,3.60
2012,04,14,04,31,3.60
2012,04,14,04,32,3.60
2012,04,14,04,33,3.50
2012,04,14,04,34,3.50
2012,04,14,04,35,3.50
2012,04,14,04,36,3.50
2012,04,14,04,37,3.50
2012,04,14,04,38,3.40
2012,04,14,04,39,3.40
2012,04,14,04,40,3.40
2012,04,14,04,41,3.40
2012,04,14,04,42,3.30
2012,04,14,04,43,3.30
2012,04,14,04,44,3.30
2012,04,14,04,45,3.30
2012,04,14,04,46,3.30
2012,04,14,04,47,3.30
2012,04,14,04,48,3.30
2012,04,14,04,49,3.20
2012,04,14,04,50,3.20
2012,04,14,04,51,3.20
2012,04,14,04,52,3.20
2012,04,14,04,53,3.20
2012,04,14,04,54,3.20
2012,04,14,04,55,3.20
2012,04,14,04,56,3.20
2012,04,14,04,57,3.20
2012,04,14,04,58,3.20
2012,04,14,04,59,3.20
2012,04,14,05,00,3.20
2012,04,14,05,01,3.10
2012,04,14,05,02,3.20
2012,04,14,05,03,3.20
2012,04,14,05,04,3.20
2012,04,14,05,05,3.20
2012,04,14,05,06,3.10
2012,04,14,05,07,3.10
2012,04,14,05,08,3.10
2012,04,14,05,09,3.10
2012,04,14,05,10,3.10
2012,04,14,05,11,3.10
2012,04,14,05,12,3.10
2012,04,14,05,13,3.10
2012,04,14,05,14,3.10
2012,04,14,05,15,3.00
2012,04,14,05,16,2.90
2012,04,14,05,17,2.90
2012,04,14,05,18,2.90
2012,04,14,05,19,2.90
2012,04,14,05,20,2.90
2012,04,14,05,21,2.90
2012,04,14,05,22,2.90
2012,04,14,05,23,2.90
2012,04,14,05,24,2.90
2012,04,14,05,25,2.90
2012,04,14,05,26,2.80
2012,04,14,05,27,2.80
2012,04,14,05,28,2.80
2012,04,14,05,29,2.80
2012,04,14,05,30,2.80
2012,04,14,05,31,2.80
2012,04,14,05,32,2.80
2012,04,14,05,33,2.80
2012,04,14,05,34,2.80
2012,04,14,05,35,2.80
2012,04,14,05,36,2.80
2012,04,14,05,37,2.80
2012,04,14,05,38,2.80
2012,04,14,05,39,2.90
2012,04,14,05,40,2.90
2012,04,14,05,41,2.90
2012,04,14,05,42,2.90
2012,04,14,05,43,2.90
2012,04,14,05,44,2.80
2012,04,14,05,45,2.80
2012,04,14,05,46,2.80
2012,04,14,05,47,2.80
2012,04,14,05,48,2.80
2012,04,14,05,49,2.70
2012,04,14,05,50,2.70
2012,04,14,05,51,2.70
2012,04,14,05,52,2.70
2012,04,14,05,53,2.70
2012,04,14,05,54,2.70
2012,04,14,05,55,2.70
2012,04,14,05,56,2.70
2012,04,14,05,57,2.70
2012,04,14,05,58,2.70
2012,04,14,05,59,2.70
2012,04,14,06,00,2.70
2012,04,14,06,01,2.80
2012,04,14,06,02,2.80
2012,04,14,06,03,2.80
2012,04,14,06,04,2.80
2012,04,14,06,05,2.80
2012,04,14,06,06,2.80
2012,04,14,06,07,2.80
2012,04,14,06,08,2.80
2012,04,14,06,09,2.70
2012,04,14,06,10,2.70
2012,04,14,06,11,2.70
2012,04,14,06,12,2.70
2012,04,14,06,13,2.70
2012,04,14,06,14,2.70
2012,04,14,06,15,2.70
2012,04,14,06,16,2.60
2012,04,14,06,17,2.60
2012,04,14,06,18,2.50
2012,04,14,06,19,2.50
2012,04,14,06,20,2.50
2012,04,14,06,21,2.50
2012,04,14,06,22,2.50
2012,04,14,06,23,2.50
2012,04,14,06,24,2.50
2012,04,14,06,25,2.50
2012,04,14,06,26,2.50
2012,04,14,06,27,2.50
2012,04,14,06,28,2.50
2012,04,14,06,29,2.50
2012,04,14,06,30,2.50
2012,04,14,06,31,2.50
2012,04,14,06,32,2.50
2012,04,14,06,33,2.50
2012,04,14,06,34,2.50
2012,04,14,06,35,2.50
2012,04,14,06,36,2.50
2012,04,14,06,37,2.50
2012,04,14,06,38,2.40
2012,04,14,06,39,2.40
2012,04,14,06,40,2.40
2012,04,14,06,41,2.40
2012,04,14,06,42,2.40
2012,04,14,06,43,2.40
2012,04,14,06,44,2.40
2012,04,14,06,45,2.40
2012,04,14,06,46,2.30
2012,04,14,06,47,2.30
2012,04,14,06,48,2.30
2012,04,14,06,49,2.30
2012,04,14,06,50,2.30
2012,04,14,06,51,2.30
2012,04,14,06,52,2.30
2012,04,14,06,53,2.40
2012,04,14,06,54,2.40
2012,04,14,06,55,2.40
2012,04,14,06,56,2.40
2012,04,14,06,57,2.40
2012,04,14,06,58,2.40
2012,04,14,06,59,2.40
2012,04,14,07,00,2.40
2012,04,14,07,01,2.40
2012,04,14,07,02,2.40
2012,04,14,07,03,2.40
2012,04,14,07,04,2.40
2012,04,14,07,05,2.50
2012,04,14,07,06,2.50
2012,04,14,07,07,2.50
2012,04,14,07,08,2.50
2012,04,14,07,09,2.60
2012,04,14,07,10,2.60
2012,04,14,07,11,2.60
2012,04,14,07,12,2.60
2012,04,14,07,13,2.60
2012,04,14,07,14,2.70
2012,04,14,07,15,2.70
2012,04,14,07,16,2.70
2012,04,14,07,17,2.70
2012,04,14,07,18,2.70
2012,04,14,07,19,2.70
2012,04,14,07,20,2.80
2012,04,14,07,21,2.80
2012,04,14,07,22,2.90
2012,04,14,07,23,2.90
2012,04,14,07,24,3.00
2012,04,14,07,25,3.10
2012,04,14,07,26,3.10
2012,04,14,07,27,3.10
2012,04,14,07,28,3.20
2012,04,14,07,29,3.30
2012,04,14,07,30,3.30
2012,04,14,07,31,3.30
2012,04,14,07,32,3.40
2012,04,14,07,33,3.50
2012,04,14,07,34,3.50
2012,04,14,07,35,3.50
2012,04,14,07,36,3.60
2012,04,14,07,37,3.60
2012,04,14,07,38,3.70
2012,04,14,07,39,3.70
2012,04,14,07,40,3.80
2012,04,14,07,41,3.80
2012,04,14,07,42,4.00
2012,04,14,07,43,4.00
2012,04,14,07,44,4.20
2012,04,14,07,45,4.30
2012,04,14,07,46,4.50
2012,04,14,07,47,4.60
2012,04,14,07,48,4.70
2012,04,14,07,49,4.80
2012,04,14,07,50,4.90
2012,04,14,07,51,4.90
2012,04,14,07,52,5.10
2012,04,14,07,53,5.10
2012,04,14,07,54,5.20
2012,04,14,07,55,5.20
2012,04,14,07,56,5.30
2012,04,14,07,57,5.40
2012,04,14,07,58,5.50
2012,04,14,07,59,5.70
2012,04,14,08,00,5.80
2012,04,14,08,01,5.90
2012,04,14,08,02,6.00
2012,04,14,08,03,6.10
2012,04,14,08,04,6.30
2012,04,14,08,05,6.40
2012,04,14,08,06,6.60
2012,04,14,08,07,6.70
2012,04,14,08,08,6.80
2012,04,14,08,09,7.00
2012,04,14,08,10,7.10
2012,04,14,08,11,7.20
2012,04,14,08,12,7.30
2012,04,14,08,13,7.30
2012,04,14,08,14,7.40
2012,04,14,08,15,7.50
2012,04,14,08,16,7.60
2012,04,14,08,17,7.70
2012,04,14,08,18,7.80
2012,04,14,08,19,7.90
2012,04,14,08,20,7.90
2012,04,14,08,21,8.00
2012,04,14,08,22,8.10
2012,04,14,08,23,8.20
2012,04,14,08,24,8.30
2012,04,14,08,25,8.40
2012,04,14,08,26,8.50
2012,04,14,08,27,8.60
2012,04,14,08,28,8.70
2012,04,14,08,29,8.80
2012,04,14,08,30,8.90
2012,04,14,08,31,9.00
2012,04,14,08,32,9.10
2012,04,14,08,33,9.20
2012,04,14,08,34,9.30
2012,04,14,08,35,9.40
2012,04,14,08,36,9.50
2012,04,14,08,37,9.50
2012,04,14,08,38,9.60
2012,04,14,08,39,9.70
2012,04,14,08,40,9.70
2012,04,14,08,41,9.80
2012,04,14,08,42,9.90
2012,04,14,08,43,9.90
2012,04,14,08,44,10.00
2012,04,14,08,45,10.10
2012,04,14,08,46,10.10
2012,04,14,08,47,10.20
2012,04,14,08,48,10.20
2012,04,14,08,49,10.30
2012,04,14,08,50,10.30
2012,04,14,08,51,10.30
2012,04,14,08,52,10.30
2012,04,14,08,53,10.30
2012,04,14,08,54,10.30
2012,04,14,08,55,10.30
2012,04,14,08,56,10.30
2012,04,14,08,57,10.40
2012,04,14,08,58,10.30
2012,04,14,08,59,10.30
2012,04,14,09,00,10.40
2012,04,14,09,01,10.40
2012,04,14,09,02,10.40
2012,04,14,09,03,10.40
2012,04,14,09,04,10.40
2012,04,14,09,05,10.40
2012,04,14,09,06,10.50
2012,04,14,09,07,10.60
2012,04,14,09,08,10.60
2012,04,14,09,09,10.60
2012,04,14,09,10,10.70
2012,04,14,09,11,10.70
2012,04,14,09,12,10.70
2012,04,14,09,13,10.70
2012,04,14,09,14,10.70
2012,04,14,09,15,10.70
2012,04,14,09,16,10.70
2012,04,14,09,17,10.70
2012,04,14,09,18,10.70
2012,04,14,09,19,10.80
2012,04,14,09,20,10.90
2012,04,14,09,21,11.00
2012,04,14,09,22,11.10
2012,04,14,09,23,11.10
2012,04,14,09,24,11.10
2012,04,14,09,25,11.10
2012,04,14,09,26,11.10
2012,04,14,09,27,11.10
2012,04,14,09,28,11.10
2012,04,14,09,29,11.10
2012,04,14,09,30,11.10
2012,04,14,09,31,11.10
2012,04,14,09,32,11.10
2012,04,14,09,33,11.00
2012,04,14,09,34,10.90
2012,04,14,09,35,10.90
2012,04,14,09,36,11.00
2012,04,14,09,37,11.10
2012,04,14,09,38,11.10
2012,04,14,09,39,11.10
2012,04,14,09,40,11.20
2012,04,14,09,41,11.30
2012,04,14,09,42,11.40
2012,04,14,09,43,11.40
2012,04,14,09,44,11.30
2012,04,14,09,45,11.20
2012,04,14,09,46,11.20
2012,04,14,09,47,11.10
2012,04,14,09,48,11.10
2012,04,14,09,49,11.10
2012,04,14,09,50,11.10
2012,04,14,09,51,11.10
2012,04,14,09,52,11.10
2012,04,14,09,53,11.10
2012,04,14,09,54,11.10
2012,04,14,09,55,11.10
2012,04,14,09,56,11.10
2012,04,14,09,57,11.10
2012,04,14,09,58,11.10
2012,04,14,09,59,11.10
2012,04,14,10,00,11.10
2012,04,14,10,01,11.10
2012,04,14,10,02,11.10
2012,04,14,10,03,11.10
2012,04,14,10,04,11.20
2012,04,14,10,05,11.20
2012,04,14,10,06,11.30
2012,04,14,10,07,11.40
2012,04,14,10,08,11.40
2012,04,14,10,09,11.50
2012,04,14,10,10,11.60
2012,04,14,10,11,11.60
2012,04,14,10,12,11.60
2012,04,14,10,13,11.60
2012,04,14,10,14,11.70
2012,04,14,10,15,11.70
2012,04,14,10,16,11.80
2012,04,14,10,17,11.80
2012,04,14,10,18,11.90
2012,04,14,10,19,12.00
2012,04,14,10,20,12.00
2012,04,14,10,21,12.00
2012,04,14,10,22,11.90
2012,04,14,10,23,11.90
2012,04,14,10,24,11.90
2012,04,14,10,25,11.90
2012,04,14,10,26,11.80
2012,04,14,10,27,11.80
2012,04,14,10,28,11.80
2012,04,14,10,29,11.80
2012,04,14,10,30,11.90
2012,04,14,10,31,11.90
2012,04,14,10,32,12.00
2012,04,14,10,33,12.00
2012,04,14,10,34,12.10
2012,04,14,10,35,12.20
2012,04,14,10,36,12.20
2012,04,14,10,37,12.20
2012,04,14,10,38,12.20
2012,04,14,10,39,12.20
2012,04,14,10,40,12.20
2012,04,14,10,41,12.30
2012,04,14,10,42,12.30
2012,04,14,10,43,12.40
2012,04,14,10,44,12.40
2012,04,14,10,45,12.40
2012,04,14,10,46,12.40
2012,04,14,10,47,12.30
2012,04,14,10,48,12.30
2012,04,14,10,49,12.30
2012,04,14,10,50,12.30
2012,04,14,10,51,12.50
2012,04,14,10,52,12.50
2012,04,14,10,53,12.60
2012,04,14,10,54,12.70
2012,04,14,10,55,12.80
2012,04,14,10,56,12.80
2012,04,14,10,57,12.70
2012,04,14,10,58,12.70
2012,04,14,10,59,12.70
2012,04,14,11,00,12.70
2012,04,14,11,01,12.80
2012,04,14,11,02,12.80
2012,04,14,11,03,12.80
2012,04,14,11,04,12.90
2012,04,14,11,05,13.00
2012,04,14,11,06,13.00
2012,04,14,11,07,13.00
2012,04,14,11,08,13.10
2012,04,14,11,09,13.20
2012,04,14,11,10,13.30
2012,04,14,11,11,13.30
2012,04,14,11,12,13.40
2012,04,14,11,13,13.30
2012,04,14,11,14,13.10
2012,04,14,11,15,13.00
2012,04,14,11,16,13.00
2012,04,14,11,17,13.10
2012,04,14,11,18,13.10
2012,04,14,11,19,13.10
2012,04,14,11,20,13.10
2012,04,14,11,21,13.10
2012,04,14,11,22,13.10
2012,04,14,11,23,13.00
2012,04,14,11,24,13.00
2012,04,14,11,25,13.10
2012,04,14,11,26,13.20
2012,04,14,11,27,13.40
2012,04,14,11,28,13.40
2012,04,14,11,29,13.40
2012,04,14,11,30,13.50
2012,04,14,11,31,13.50
2012,04,14,11,32,13.60
2012,04,14,11,33,13.70
2012,04,14,11,34,13.70
2012,04,14,11,35,13.70
2012,04,14,11,36,13.70
2012,04,14,11,37,13.80
2012,04,14,11,38,13.90
2012,04,14,11,39,13.90
2012,04,14,11,40,14.00
2012,04,14,11,41,14.10
2012,04,14,11,42,14.00
2012,04,14,11,43,13.90
2012,04,14,11,44,13.70
2012,04,14,11,45,13.70
2012,04,14,11,46,13.70
2012,04,14,11,47,13.70
2012,04,14,11,48,13.70
2012,04,14,11,49,13.70
2012,04,14,11,50,13.70
2012,04,14,11,51,13.70
2012,04,14,11,52,13.70
2012,04,14,11,53,13.70
2012,04,14,11,54,13.70
2012,04,14,11,55,13.70
2012,04,14,11,56,13.70
2012,04,14,11,57,13.70
2012,04,14,11,58,13.80
2012,04,14,11,59,13.80
2012,04,14,12,00,13.80
2012,04,14,12,01,13.80
2012,04,14,12,02,13.80
2012,04,14,12,03,13.90
2012,04,14,12,04,13.90
2012,04,14,12,05,14.00
2012,04,14,12,06,14.20
2012,04,14,12,07,14.30
2012,04,14,12,08,14.40
2012,04,14,12,09,14.50
2012,04,14,12,10,14.40
2012,04,14,12,11,14.10
2012,04,14,12,12,13.90
2012,04,14,12,13,13.70
2012,04,14,12,14,13.70
2012,04,14,12,15,13.80
2012,04,14,12,16,13.90
2012,04,14,12,17,13.90
2012,04,14,12,18,14.00
2012,04,14,12,19,14.10
2012,04,14,12,20,14.20
2012,04,14,12,21,14.10
2012,04,14,12,22,14.00
2012,04,14,12,23,14.10
2012,04,14,12,24,14.20
2012,04,14,12,25,14.20
2012,04,14,12,26,14.30
2012,04,14,12,27,14.50
2012,04,14,12,28,14.60
2012,04,14,12,29,14.70
2012,04,14,12,30,14.80
2012,04,14,12,31,14.80
2012,04,14,12,32,14.70
2012,04,14,12,33,14.50
2012,04,14,12,34,14.50
2012,04,14,12,35,14.50
2012,04,14,12,36,14.60
2012,04,14,12,37,14.60
2012,04,14,12,38,14.50
2012,04,14,12,39,14.40
2012,04,14,12,40,14.50
2012,04,14,12,41,14.50
2012,04,14,12,42,14.50
2012,04,14,12,43,14.60
2012,04,14,12,44,14.80
2012,04,14,12,45,14.80
2012,04,14,12,46,14.80
2012,04,14,12,47,14.80
2012,04,14,12,48,14.80
2012,04,14,12,49,14.80
2012,04,14,12,50,14.80
2012,04,14,12,51,14.70
2012,04,14,12,52,14.60
2012,04,14,12,53,14.50
2012,04,14,12,54,14.40
2012,04,14,12,55,14.40
2012,04,14,12,56,14.40
2012,04,14,12,57,14.50
2012,04,14,12,58,14.60
2012,04,14,12,59,14.60
2012,04,14,13,00,14.60
2012,04,14,13,01,14.60
2012,04,14,13,02,14.60
2012,04,14,13,03,14.60
2012,04,14,13,04,14.70
2012,04,14,13,05,14.80
2012,04,14,13,06,14.80
2012,04,14,13,07,14.90
2012,04,14,13,08,15.00
2012,04,14,13,09,15.10
2012,04,14,13,10,15.20
2012,04,14,13,11,15.20
2012,04,14,13,12,15.30
2012,04,14,13,13,15.30
2012,04,14,13,14,15.30
2012,04,14,13,15,15.30
2012,04,14,13,16,15.20
2012,04,14,13,17,15.10
2012,04,14,13,18,15.10
2012,04,14,13,19,15.10
2012,04,14,13,20,15.10
2012,04,14,13,21,15.10
2012,04,14,13,22,15.20
2012,04,14,13,23,15.20
2012,04,14,13,24,15.20
2012,04,14,13,25,15.10
2012,04,14,13,26,15.10
2012,04,14,13,27,15.20
2012,04,14,13,28,15.20
2012,04,14,13,29,15.20
2012,04,14,13,30,15.10
2012,04,14,13,31,15.10
2012,04,14,13,32,15.10
2012,04,14,13,33,15.20
2012,04,14,13,34,15.20
2012,04,14,13,35,15.10
2012,04,14,13,36,15.00
2012,04,14,13,37,14.90
2012,04,14,13,38,15.00
2012,04,14,13,39,15.00
2012,04,14,13,40,15.00
2012,04,14,13,41,15.00
2012,04,14,13,42,15.00
2012,04,14,13,43,15.00
2012,04,14,13,44,15.10
2012,04,14,13,45,15.20
2012,04,14,13,46,15.20
2012,04,14,13,47,15.20
2012,04,14,13,48,15.30
2012,04,14,13,49,15.30
2012,04,14,13,50,15.30
2012,04,14,13,51,15.30
2012,04,14,13,52,15.30
2012,04,14,13,53,15.30
2012,04,14,13,54,15.30
2012,04,14,13,55,15.20
2012,04,14,13,56,15.10
2012,04,14,13,57,15.10
2012,04,14,13,58,15.20
2012,04,14,13,59,15.20
2012,04,14,14,00,15.10
2012,04,14,14,01,15.10
2012,04,14,14,02,15.20
2012,04,14,14,03,15.30
2012,04,14,14,04,15.30
2012,04,14,14,05,15.30
2012,04,14,14,06,15.30
2012,04,14,14,07,15.30
2012,04,14,14,08,15.30
2012,04,14,14,09,15.30
2012,04,14,14,10,15.10
2012,04,14,14,11,15.00
2012,04,14,14,12,14.90
2012,04,14,14,13,14.80
2012,04,14,14,14,14.70
2012,04,14,14,15,14.70
2012,04,14,14,16,14.70
2012,04,14,14,17,14.80
2012,04,14,14,18,14.90
2012,04,14,14,19,15.00
2012,04,14,14,20,15.00
2012,04,14,14,21,14.80
2012,04,14,14,22,14.80
2012,04,14,14,23,14.80
2012,04,14,14,24,14.80
2012,04,14,14,25,14.80
2012,04,14,14,26,14.90
2012,04,14,14,27,15.00
2012,04,14,14,28,15.10
2012,04,14,14,29,15.20
2012,04,14,14,30,15.30
2012,04,14,14,31,15.40
2012,04,14,14,32,15.40
2012,04,14,14,33,15.40
2012,04,14,14,34,15.30
2012,04,14,14,35,15.20
2012,04,14,14,36,15.10
2012,04,14,14,37,15.10
2012,04,14,14,38,15.10
2012,04,14,14,39,15.00
2012,04,14,14,40,14.90
2012,04,14,14,41,14.90
2012,04,14,14,42,14.80
2012,04,14,14,43,14.80
2012,04,14,14,44,14.80
2012,04,14,14,45,14.80
2012,04,14,14,46,14.90
2012,04,14,14,47,14.90
2012,04,14,14,48,14.90
2012,04,14,14,49,14.90
2012,04,14,14,50,15.00
2012,04,14,14,51,15.10
2012,04,14,14,52,15.10
2012,04,14,14,53,15.10
2012,04,14,14,54,15.10
2012,04,14,14,55,15.10
2012,04,14,14,56,15.20
2012,04,14,14,57,15.20
2012,04,14,14,58,15.20
2012,04,14,14,59,15.20
2012,04,14,15,00,15.20
2012,04,14,15,01,15.10
2012,04,14,15,02,15.10
2012,04,14,15,03,15.10
2012,04,14,15,04,15.10
2012,04,14,15,05,15.10
2012,04,14,15,06,15.10
2012,04,14,15,07,15.20
2012,04,14,15,08,15.20
2012,04,14,15,09,15.10
2012,04,14,15,10,15.20
2012,04,14,15,11,15.20
2012,04,14,15,12,15.20
2012,04,14,15,13,15.10
2012,04,14,15,14,15.00
2012,04,14,15,15,14.90
2012,04,14,15,16,14.90
2012,04,14,15,17,14.90
2012,04,14,15,18,14.90
2012,04,14,15,19,14.90
2012,04,14,15,20,15.00
2012,04,14,15,21,15.00
2012,04,14,15,22,15.00
2012,04,14,15,23,15.00
2012,04,14,15,24,15.00
2012,04,14,15,25,15.10
2012,04,14,15,26,15.10
2012,04,14,15,27,15.20
2012,04,14,15,28,15.20
2012,04,14,15,29,15.10
2012,04,14,15,30,15.10
2012,04,14,15,31,15.00
2012,04,14,15,32,14.90
2012,04,14,15,33,14.90
2012,04,14,15,34,14.90
2012,04,14,15,35,14.80
2012,04,14,15,36,14.80
2012,04,14,15,37,14.80
2012,04,14,15,38,14.80
2012,04,14,15,39,14.70
2012,04,14,15,40,14.60
2012,04,14,15,41,14.50
2012,04,14,15,42,14.50
2012,04,14,15,43,14.40
2012,04,14,15,44,14.40
2012,04,14,15,45,14.40
2012,04,14,15,46,14.30
2012,04,14,15,47,14.20
2012,04,14,15,48,14.20
2012,04,14,15,49,14.20
2012,04,14,15,50,14.20
2012,04,14,15,51,14.10
2012,04,14,15,52,14.10
2012,04,14,15,53,14.10
2012,04,14,15,54,14.00
2012,04,14,15,55,14.00
2012,04,14,15,56,13.90
2012,04,14,15,57,13.90
2012,04,14,15,58,13.90
2012,04,14,15,59,13.90
2012,04,14,16,00,13.90
2012,04,14,16,01,13.90
2012,04,14,16,02,13.80
2012,04,14,16,03,13.70
2012,04,14,16,04,13.70
2012,04,14,16,05,13.70
2012,04,14,16,06,13.70
2012,04,14,16,07,13.60
2012,04,14,16,08,13.60
2012,04,14,16,09,13.70
2012,04,14,16,10,13.70
2012,04,14,16,11,13.70
2012,04,14,16,12,13.70
2012,04,14,16,13,13.80
2012,04,14,16,14,13.90
2012,04,14,16,15,13.90
2012,04,14,16,16,14.00
2012,04,14,16,17,14.00
2012,04,14,16,18,14.10
2012,04,14,16,19,14.10
2012,04,14,16,20,14.10
2012,04,14,16,21,14.10
2012,04,14,16,22,14.20
2012,04,14,16,23,14.20
2012,04,14,16,24,14.20
2012,04,14,16,25,14.20
2012,04,14,16,26,14.20
2012,04,14,16,27,14.20
2012,04,14,16,28,14.20
2012,04,14,16,29,14.20
2012,04,14,16,30,14.20
2012,04,14,16,31,14.20
2012,04,14,16,32,14.20
2012,04,14,16,33,14.30
2012,04,14,16,34,14.30
2012,04,14,16,35,14.40
2012,04,14,16,36,14.50
2012,04,14,16,37,14.50
2012,04,14,16,38,14.50
2012,04,14,16,39,14.50
2012,04,14,16,40,14.60
2012,04,14,16,41,14.60
2012,04,14,16,42,14.60
2012,04,14,16,43,14.50
2012,04,14,16,44,14.50
2012,04,14,16,45,14.50
2012,04,14,16,46,14.50
2012,04,14,16,47,14.50
2012,04,14,16,48,14.50
2012,04,14,16,49,14.50
2012,04,14,16,50,14.50
2012,04,14,16,51,14.50
2012,04,14,16,52,14.60
2012,04,14,16,53,14.50
2012,04,14,16,54,14.40
2012,04,14,16,55,14.40
2012,04,14,16,56,14.30
2012,04,14,16,57,14.30
2012,04,14,16,58,14.40
2012,04,14,16,59,14.50
2012,04,14,17,00,14.50
2012,04,14,17,01,14.60
2012,04,14,17,02,14.50
2012,04,14,17,03,14.50
2012,04,14,17,04,14.50
2012,04,14,17,05,14.50
2012,04,14,17,06,14.50
2012,04,14,17,07,14.40
2012,04,14,17,08,14.40
2012,04,14,17,09,14.40
2012,04,14,17,10,14.40
2012,04,14,17,11,14.40
2012,04,14,17,12,14.40
2012,04,14,17,13,14.40
2012,04,14,17,14,14.30
2012,04,14,17,15,14.20
2012,04,14,17,16,14.20
2012,04,14,17,17,14.20
2012,04,14,17,18,14.10
2012,04,14,17,19,14.00
2012,04,14,17,20,14.00
2012,04,14,17,21,13.90
2012,04,14,17,22,13.80
2012,04,14,17,23,13.70
2012,04,14,17,24,13.70
2012,04,14,17,25,13.70
2012,04,14,17,26,13.60
2012,04,14,17,27,13.50
2012,04,14,17,28,13.50
2012,04,14,17,29,13.40
2012,04,14,17,30,13.30
2012,04,14,17,31,13.30
2012,04,14,17,32,13.30
2012,04,14,17,33,13.30
2012,04,14,17,34,13.30
2012,04,14,17,35,13.30
2012,04,14,17,36,13.20
2012,04,14,17,37,13.10
2012,04,14,17,38,13.10
2012,04,14,17,39,13.10
2012,04,14,17,40,13.10
2012,04,14,17,41,13.10
2012,04,14,17,42,13.10